Regional Weather Roundup
Issued by NWS Green Bay, WI

Home | Current Version | Previous Version | Graphics & Text | Print | Product List | Glossary Off
Versions: 1 2 3 4 5 6 7 8 9 10 11 12 13 14 15 16 17 18 19 20 21 22 23 24 25 26 27 28 29 30 31 32 33 34 35 36 37 38 39 40 41 42 43 44 45 46 47 48 49 50

000
ASUS43 KGRB 272259
RWRGRB

NORTH-CENTRAL AND NORTHEAST WISCONSIN REGIONAL WEATHER ROUNDUP
NATIONAL WEATHER SERVICE GREEN BAY WI
500 PM CST TUE JAN 27 2015

WIZ005-009-010>012-018-019-280000-
NORTH CENTRAL WISCONSIN

CITY           SKY/WX    TMP DP  RH WIND       PRES   REMARKS
IRONWOOD       CLOUDY    27  25  93 S3        30.12F
MANITOWISH WTR NOT AVBL
ARBOR VITAE    NOT AVBL
EAGLE RIVER    NOT AVBL
LAND O LAKES   NOT AVBL
RHINELANDER    CLOUDY    23  18  81 S3        30.16S
PHILLIPS       NOT AVBL
ANTIGO         NOT AVBL
TOMAHAWK       NOT AVBL
MERRILL        NOT AVBL
$$

WIZ013-073-280000-
NORTHEAST WISCONSIN

CITY           SKY/WX    TMP DP  RH WIND       PRES   REMARKS
IRON MOUNTAIN  CLOUDY    23  16  74 S3        30.19S
MARINETTE      CLOUDY    23  16  74 E3        30.24S
$$

WIZ017-030-035>037-045-280000-
CENTRAL WISCONSIN

CITY           SKY/WX    TMP DP  RH WIND       PRES   REMARKS
MEDFORD        NOT AVBL
WAUSAU         CLOUDY    24  20  84 CALM      30.18R
MOSINEE        NOT AVBL
MARSHFIELD     CLOUDY    25  20  81 S3        30.19R
WISC RAPIDS    CLOUDY    26  21  81 CALM      30.23R
STEVENS POINT  NOT AVBL
WAUPACA        NOT AVBL
SHAWANO        NOT AVBL
CLINTONVILLE   NOT AVBL
$$

WIZ038-039-048-051-280000-
FOX VALLEY

CITY           SKY/WX    TMP DP  RH WIND       PRES   REMARKS
NWS GREEN BAY  CLOUDY    25  17  72 CALM      30.25R
APPLETON       CLOUDY    27  16  63 VRB3      30.23S
OSHKOSH        CLOUDY    26  16  65 NE5       30.23R
FOND DU LAC    CLOUDY    26  17  68 N7        30.22S
$$

WIZ022-050-052-280000-
EAST CENTRAL WISCONSIN

CITY           SKY/WX    TMP DP  RH WIND       PRES   REMARKS
STURGEON BAY   PTCLDY    21  14  73 CALM      30.26R
MANITOWOC      NOT AVBL
SHEBOYGAN      CLOUDY    26  18  71 NE5       30.24R
$$

LMZ563-521-522-541>543-280000-
LAKESHORE

STATION/POSITION TIME  TEMP    WIND        PRES    VSBY  WAVE
                       AIR SEA DIR/SP/G                  HT/PER
                 (UTC) (F)     (DEG/KT/KT) (MB)    (MI)  (FT/S)
SHEBOYGAN LKSHOR 2200   26      10/  7/  9 1025.0R
KEWAUNEE LKSHORE 2200   26     340/  2/  4 1023.1R
NORTHPORT PIER   2200   24      CALM  /  2 1024.0R
SISTER BAY LKSHO 2200   27     360/  8/  9   N/A
STURGEON BAY CG  2200   25     320/  4     1023.9      6   1
CHAMBERS ISLAND  2200   20     350/  2/  4 1024.4R
MENOMINEE LKSHOR 2200   17     360/  3     1024.9R
$$



USA.gov is the U.S. government's official web portal to all federal, state and local government web resources and services.